[[{"header":{"parameterUnit":"m.s-1","parameterCategory":2,"la1":30.2991,"la2":30.254,"lo1":-89.0895,"lo2":-89.0444,"dy":0.0017,"dx":0.0017,"nx":28,"ny":28,"refTime":"2024-04-10T03:00:00:Z","depth":"0","parameterNumber":2,"parameterNumberName":"U-component_of_CURRENTS"},"data":[0,0,0,0,0,0,0,0,0,0,0,0,0,0,0,0,0,0,0,0,0,0,0,0,0,0,0,0,0,0,0,0,0,0,0,0,0,0,0,0,0,0,0,0,0,0,0,0,0,0,0,0,0,0,0,0,0,0,0.2644,0.2645,0,0.268,0.268,0.268,0.2686,0.2686,0.2686,0.2686,0.273,0.2731,0.2732,0,0,0,0,0,0,0,0,0,0,0,0,0,0.2492,0.2495,0.2644,0.2645,0.2646,0.268,0.268,0.268,0.2686,0.2686,0.2686,0.2687,0.2729,0.2731,0.2732,0,0,0,0,0,0,0,0,0,0,0,0,0,0.2541,0.2495,0.2644,0.2657,0.2659,0.268,0.268,0.268,0.2686,0.2686,0.2686,0.2687,0.2729,0.273,0.2732,0.2735,0,0,0.2736,0.2737,0,0,0,0,0,0,0,0,0.2538,0.2546,0.2654,0.2656,0.2658,0.2683,0.2642,0.27,0.2686,0.267,0.2686,0.2687,0.2718,0.2721,0.2719,0.2737,0.2739,0.2736,0.2737,0.2738,0.2738,0,0,0,0,0,0,0,0.2535,0.2544,0.2652,0.2655,0.2658,0.2631,0.2638,0.2652,0.2688,0.2671,0.2673,0.2686,0.2719,0.2717,0.272,0.2739,0.2736,0.2738,0.2739,0.2739,0.2807,0.2808,0,0,0,0,0,0,0.2546,0.2541,0.2651,0.2654,0.2604,0.2634,0.2642,0.2671,0.2688,0.2692,0.2685,0.2686,0.2715,0.2718,0.2722,0.2785,0.2738,0.2739,0.274,0.2806,0.2807,0.2808,0,0,0,0,0,0,0.2543,0.2556,0.265,0.2601,0.2612,0.2638,0.2669,0.2671,0.2676,0.2699,0.2703,0.2689,0.2715,0.272,0.2755,0.2785,0.274,0.2741,0.2805,0.2806,0.2807,0.2875,0,0,0,0,0,0,0.2539,0.2555,0.2578,0.2603,0.2616,0.2683,0.2669,0.2672,0.2685,0.2686,0.2703,0.2707,0.2716,0.2753,0.2756,0.2786,0.2742,0.2803,0.2805,0.2807,0.2871,0.2878,0.2884,0,0,0,0,0,0.2533,0.2566,0.2579,0.2592,0.2647,0.2685,0.2689,0.2702,0.2685,0.2702,0.2713,0.2707,0.2766,0.2755,0.2759,0.279,0.2803,0.2805,0.2807,0.2868,0.2877,0.2884,0,0,0,0,0,0,0.2524,0.2571,0.2585,0.2635,0.2668,0.2689,0.2705,0.2703,0.272,0.2722,0.2723,0.2729,0.2776,0.2766,0.2753,0.2812,0.2781,0.2784,0.2827,0.2835,0.2841,0.2835,0.2744,0,0,0,0,0,0.2532,0.2562,0.2607,0.2648,0.2665,0.2681,0.2694,0.2708,0.2728,0.2734,0.2743,0.2756,0.2785,0.2796,0.2821,0.2847,0.2847,0.2866,0.2872,0.2878,0.2874,0.2896,0.2904,0.2815,0.2815,0.2815,0,0,0.2535,0.2571,0.2586,0.2647,0.2667,0.2701,0.2689,0.2724,0.2748,0.2737,0.2768,0.2786,0.2799,0.2844,0.2861,0.2839,0.2909,0.2881,0.2886,0.2879,0.2899,0.2908,0.2915,0.2816,0.2816,0.2816,0,0,0.2554,0.2596,0.262,0.2654,0.2703,0.272,0.2731,0.276,0.2773,0.2806,0.2813,0.2847,0.2868,0.2897,0.2909,0.2958,0.295,0.2961,0.2983,0.3005,0.3013,0.3019,0.3057,0.3066,0.2955,0.2955,0.2956,0,0.2553,0.2604,0.2634,0.2673,0.27,0.2728,0.276,0.2784,0.282,0.2832,0.2827,0.2877,0.2895,0.2949,0.2973,0.2976,0.2985,0.2957,0.3014,0.3021,0.3026,0.3063,0.3072,0.2959,0.2959,0.2958,0.2958,0,0.2592,0.2633,0.2654,0.271,0.2744,0.2782,0.2826,0.2852,0.286,0.288,0.293,0.2958,0.2982,0.3001,0.3003,0.3057,0.3053,0.303,0.2997,0.3039,0.3075,0.3084,0.2964,0.2963,0.2962,0.2961,0,0,0.2585,0.2659,0.2668,0.2688,0.2767,0.279,0.2845,0.2893,0.2921,0.2954,0.2987,0.3041,0.3047,0.3061,0.3076,0.3095,0.3161,0.3077,0.3077,0.3119,0.3222,0.3269,0.3283,0.3145,0.3146,0.3147,0.3241,0,0.2602,0.2656,0.27,0.2749,0.2777,0.2825,0.2873,0.2924,0.2963,0.3008,0.304,0.309,0.3074,0.3101,0.3118,0.316,0.3182,0.3138,0.317,0.3171,0.3211,0.3294,0.3333,0.3424,0.325,0.3251,0.3252,0,0.2626,0.2658,0.2698,0.2756,0.2774,0.2808,0.2876,0.2925,0.3008,0.3045,0.3092,0.3126,0.319,0.3158,0.3229,0.3201,0.3212,0.3228,0.3232,0.3253,0.3234,0.3347,0.3446,0.3469,0.3265,0.3264,0.3263,0,0.2585,0.2654,0.2674,0.2699,0.2776,0.2795,0.2837,0.2924,0.2984,0.3073,0.313,0.3188,0.3245,0.3257,0.3307,0.3269,0.3379,0.3328,0.3378,0.3382,0.3411,0.3415,0.3536,0.3359,0.3359,0.3358,0.3358,0,0.2584,0.2598,0.2649,0.2662,0.2695,0.276,0.2818,0.2875,0.299,0.3062,0.314,0.3217,0.327,0.3342,0.3342,0.3417,0.341,0.3408,0.3417,0.3439,0.3444,0.3457,0.3421,0.3362,0.3361,0.336,0.336,0,0.2533,0.2572,0.2591,0.2652,0.2674,0.2691,0.2807,0.2852,0.2975,0.3076,0.3116,0.3268,0.3378,0.344,0.3503,0.3492,0.3485,0.355,0.359,0.3601,0.3649,0.3614,0.3442,0.3333,0.3621,0.3623,0.3625,0,0.2506,0.2511,0.2561,0.2571,0.2594,0.2646,0.2687,0.2821,0.289,0.3096,0.3138,0.3314,0.3442,0.3603,0.3645,0.371,0.3564,0.3739,0.3664,0.369,0.3656,0.3388,0.3286,0.3739,0.3741,0.3743,0.3744,0,0.2446,0.246,0.2473,0.2505,0.253,0.2579,0.2652,0.2724,0.2881,0.301,0.319,0.333,0.3552,0.3697,0.3814,0.3824,0.3638,0.3778,0.3795,0.3762,0.3485,0.3374,0.3643,0.3762,0.376,0.3759,0.3758,0.3757,0.2385,0.238,0.2402,0.2429,0.2458,0.2501,0.2533,0.2652,0.2788,0.2983,0.3151,0.3371,0.37,0.3912,0.3879,0.3967,0.3745,0.3944,0.3904,0.3629,0.3504,0.3824,0.3951,0.3951,0.395,0.395,0.3949,0,0.2308,0.2316,0.233,0.2358,0.2364,0.2414,0.2497,0.2541,0.2675,0.2921,0.3118,0.3536,0.3793,0.3981,0.4228,0.4165,0.3852,0.4081,0.3757,0.3649,0.3995,0.3991,0.4147,0.4147,0.4147,0.4147,0.4147,0.4146,0.2266,0.2251,0.2269,0.226,0.2281,0.228,0.2315,0.241,0.2577,0.2869,0.3134,0.3372,0.3885,0.4352,0.4469,0.4348,0.3997,0.385,0.3693,0.4073,0.4057,0.4041,0.4034,0.4195,0.4195,0.3242,0.3237,0.3232]},{"header":{"parameterUnit":"m.s-1","parameterCategory":2,"la1":30.2991,"la2":30.254,"lo1":-89.0895,"lo2":-89.0444,"dy":0.0017,"dx":0.0017,"nx":28,"ny":28,"refTime":"2024-04-10T03:00:00:Z","depth":"0","parameterNumber":3,"parameterNumberName":"V-component_of_CURRENTS"},"data":[0,0,0,0,0,0,0,0,0,0,0,0,0,0,0,0,0,0,0,0,0,0,0,0,0,0,0,0,0,0,0,0,0,0,0,0,0,0,0,0,0,0,0,0,0,0,0,0,0,0,0,0,0,0,0,0,0,0,-0.0071,-0.0071,0,-0.014,-0.0141,-0.0142,-0.0204,-0.0205,-0.0205,-0.0206,-0.035,-0.0353,-0.0356,0,0,0,0,0,0,0,0,0,0,0,0,0,-0.0047,-0.0047,-0.007,-0.0071,-0.0072,-0.014,-0.0141,-0.0142,-0.0204,-0.0205,-0.0205,-0.0206,-0.0348,-0.0352,-0.0356,0,0,0,0,0,0,0,0,0,0,0,0,0,-0.0082,-0.0047,-0.007,-0.011,-0.0115,-0.014,-0.0141,-0.0142,-0.0204,-0.0205,-0.0206,-0.0207,-0.0347,-0.0352,-0.0357,-0.0367,0,0,-0.0371,-0.0373,0,0,0,0,0,0,0,0,-0.0079,-0.0082,-0.0104,-0.0108,-0.0113,-0.0164,-0.0185,-0.0221,-0.0203,-0.0171,-0.0206,-0.0207,-0.0293,-0.0302,-0.0313,-0.0373,-0.038,-0.0372,-0.0375,-0.0377,-0.0378,0,0,0,0,0,0,0,-0.0077,-0.008,-0.0099,-0.0105,-0.011,-0.0144,-0.015,-0.0192,-0.0228,-0.0174,-0.0178,-0.0184,-0.0296,-0.0308,-0.0317,-0.0382,-0.0372,-0.0376,-0.0379,-0.0381,-0.0479,-0.0479,0,0,0,0,0,0,-0.0062,-0.0077,-0.0097,-0.0101,-0.0097,-0.0143,-0.015,-0.0147,-0.0226,-0.0238,-0.0183,-0.0187,-0.03,-0.0312,-0.0323,-0.0338,-0.0377,-0.0381,-0.0384,-0.0479,-0.0479,-0.0479,0,0,0,0,0,0,-0.0061,-0.0063,-0.0094,-0.0091,-0.0097,-0.0142,-0.0139,-0.0148,-0.0162,-0.0232,-0.0246,-0.0189,-0.0301,-0.0316,-0.0357,-0.0344,-0.0383,-0.0388,-0.048,-0.0479,-0.0479,-0.0369,0,0,0,0,0,0,-0.006,-0.0062,-0.0052,-0.0089,-0.0097,-0.0096,-0.0138,-0.0148,-0.0164,-0.0169,-0.0241,-0.0255,-0.0303,-0.0349,-0.0361,-0.0351,-0.0392,-0.048,-0.0479,-0.0479,-0.0373,-0.0365,-0.0358,0,0,0,0,0,-0.0059,-0.0039,-0.0051,-0.0054,-0.0082,-0.0095,-0.0101,-0.0139,-0.0163,-0.0158,-0.0211,-0.0253,-0.0355,-0.0352,-0.0367,-0.0358,-0.048,-0.048,-0.0479,-0.0377,-0.0367,-0.0358,0,0,0,0,0,0,-0.0034,-0.0044,-0.0059,-0.0046,-0.0064,-0.0105,-0.0105,-0.0131,-0.0168,-0.0176,-0.0248,-0.0265,-0.0297,-0.0343,-0.0339,-0.0387,-0.0425,-0.0427,-0.0343,-0.0334,-0.0327,-0.0291,-0.0396,0,0,0,0,0,-0.0019,-0.0002,-0.0028,-0.0018,-0.0024,-0.0063,-0.0074,-0.0095,-0.0133,-0.015,-0.02,-0.0257,-0.0305,-0.0331,-0.0378,-0.0401,-0.0443,-0.0407,-0.0399,-0.0392,-0.0375,-0.0434,-0.043,-0.0477,-0.0477,-0.0477,0,0,-0.0008,-0.0011,-0.0004,-0.001,-0.003,-0.0019,-0.0072,-0.0077,-0.0072,-0.016,-0.0172,-0.0231,-0.0306,-0.0331,-0.035,-0.0369,-0.04,-0.0391,-0.0385,-0.0371,-0.0433,-0.0428,-0.0424,-0.0476,-0.0476,-0.0476,0,0,0.0032,0.0021,0.0053,0.0048,0.0036,0.0014,0.0018,-0.0015,-0.0034,-0.0053,-0.0118,-0.0161,-0.0232,-0.0276,-0.0311,-0.0291,-0.0358,-0.0315,-0.0248,-0.0305,-0.0301,-0.0298,-0.0335,-0.0336,-0.031,-0.031,-0.031,0,0.0052,0.0083,0.0058,0.0086,0.0089,0.0036,0.0067,0.0043,0.0002,-0.0009,-0.0043,-0.0141,-0.0202,-0.0238,-0.0232,-0.0271,-0.0312,-0.0272,-0.0293,-0.0291,-0.029,-0.0329,-0.0332,-0.0305,-0.0305,-0.0306,-0.0306,0,0.0112,0.014,0.0155,0.0179,0.0178,0.0194,0.0163,0.0155,0.012,0.0091,0.005,-0.0034,-0.0091,-0.0121,-0.0172,-0.0194,-0.0228,-0.0275,-0.0309,-0.0279,-0.0322,-0.0327,-0.0297,-0.0299,-0.0301,-0.0302,0,0,0.0165,0.0197,0.0207,0.0233,0.0231,0.0239,0.0247,0.0239,0.0245,0.0189,0.0185,0.01,0.005,0.0008,-0.0066,-0.0115,-0.0144,-0.0182,-0.0188,-0.0204,-0.0259,-0.0276,-0.0284,-0.0201,-0.0201,-0.0202,-0.0287,0,0.0225,0.0304,0.0298,0.0362,0.0394,0.0357,0.037,0.0353,0.0319,0.0302,0.0211,0.0176,0.0098,0.007,0.0011,-0.011,-0.0154,-0.0115,-0.0298,-0.0302,-0.031,-0.0289,-0.0267,-0.0341,-0.0292,-0.0293,-0.0294,0,0.0293,0.0338,0.0415,0.0457,0.0466,0.0488,0.0498,0.0508,0.0465,0.0436,0.0385,0.0307,0.0232,0.0156,-0.0012,0.0013,-0.0102,-0.0197,-0.0204,-0.0258,-0.0329,-0.0368,-0.0353,-0.0558,-0.0302,-0.0302,-0.0301,0,0.0349,0.042,0.0485,0.05,0.0534,0.0552,0.0566,0.0548,0.0573,0.0525,0.0527,0.0411,0.0359,0.0202,0.001,-0.0006,-0.0179,-0.0234,-0.0351,-0.0354,-0.0388,-0.0393,-0.0579,-0.0341,-0.0341,-0.0341,-0.0341,0,0.0418,0.0472,0.0515,0.0552,0.0624,0.0619,0.0685,0.0674,0.068,0.0722,0.0605,0.0606,0.0365,0.0234,0.0051,-0.0156,-0.0152,-0.0324,-0.0375,-0.0349,-0.0349,-0.0574,-0.0722,-0.0344,-0.0343,-0.0343,-0.0342,0,0.0468,0.05,0.0578,0.0631,0.0655,0.0705,0.0781,0.0824,0.0815,0.0865,0.0858,0.0747,0.058,0.0339,0.008,-0.0092,-0.043,-0.0373,-0.0313,-0.0354,-0.0649,-0.0792,-0.1039,-0.1165,-0.0509,-0.051,-0.051,0,0.0499,0.0545,0.064,0.0693,0.072,0.08,0.0858,0.0889,0.0953,0.0963,0.0997,0.0857,0.0798,0.042,0.0071,-0.0246,-0.0467,-0.0438,-0.0467,-0.065,-0.0849,-0.0934,-0.1028,-0.047,-0.0471,-0.0471,-0.0471,0,0.0552,0.0582,0.0648,0.0767,0.0842,0.095,0.1041,0.1122,0.1165,0.1213,0.126,0.1219,0.0852,0.0554,0.0098,-0.0148,-0.0604,-0.0454,-0.0673,-0.0851,-0.093,-0.1077,-0.0421,-0.0474,-0.0474,-0.0473,-0.0473,-0.0473,0.0581,0.064,0.0732,0.0844,0.0947,0.1095,0.1215,0.1328,0.1467,0.1599,0.1506,0.154,0.1058,0.0448,0.004,-0.0622,-0.0654,-0.0785,-0.0946,-0.1014,-0.1134,-0.0467,-0.0563,-0.0563,-0.0563,-0.0563,-0.0564,0,0.0623,0.0698,0.0805,0.0959,0.1097,0.1141,0.1338,0.1489,0.1694,0.1829,0.1901,0.1763,0.1118,0.0466,-0.0438,-0.0961,-0.1186,-0.1266,-0.1394,-0.1472,-0.0892,-0.0888,-0.1023,-0.1023,-0.1023,-0.1022,-0.1022,-0.1022,0.0647,0.076,0.0828,0.1065,0.1183,0.1408,0.1546,0.1774,0.1956,0.2229,0.2347,0.2376,0.1973,0.0156,-0.1052,-0.14,-0.1814,-0.1919,-0.2128,-0.1738,-0.1704,-0.1672,-0.17,-0.2004,-0.2005,-0.2606,-0.2612,-0.2617]}],[{"header":{"parameterUnit":"m.s-1","parameterCategory":2,"la1":30.2991,"la2":30.254,"lo1":-89.0895,"lo2":-89.0444,"dy":0.0017,"dx":0.0017,"nx":28,"ny":28,"refTime":"2024-04-10T03:00:00:Z","depth":"2","parameterNumber":2,"parameterNumberName":"U-component_of_CURRENTS"},"data":[0,0,0,0,0,0,0,0,0,0,0,0,0,0,0,0,0,0,0,0,0,0,0,0,0,0,0,0,0,0,0,0,0,0,0,0,0,0,0,0,0,0,0,0,0,0,0,0,0,0,0,0,0,0,0,0,0,0,0.2521,0.2522,0,0.2555,0.2555,0.2555,0.2585,0.2586,0.2586,0.2587,0.2632,0.2633,0.2634,0,0,0,0,0,0,0,0,0,0,0,0,0,0.2392,0.2395,0.2521,0.2522,0.2522,0.2555,0.2555,0.2556,0.2585,0.2586,0.2586,0.2587,0.2632,0.2633,0.2634,0,0,0,0,0,0,0,0,0,0,0,0,0,0.2439,0.2396,0.2521,0.2541,0.2543,0.2555,0.2555,0.2556,0.2585,0.2586,0.2586,0.2587,0.2631,0.2632,0.2634,0.2631,0,0,0.2638,0.2638,0,0,0,0,0,0,0,0,0.2437,0.2444,0.2538,0.254,0.2542,0.2567,0.2526,0.2581,0.2585,0.2569,0.2587,0.2587,0.2611,0.2614,0.2619,0.2633,0.2635,0.2638,0.2639,0.2639,0.264,0,0,0,0,0,0,0,0.2434,0.2442,0.2535,0.2538,0.2541,0.2517,0.2525,0.2536,0.2587,0.2571,0.2573,0.2577,0.2612,0.2617,0.262,0.2636,0.2638,0.2639,0.264,0.264,0.2708,0.2709,0,0,0,0,0,0,0.2434,0.244,0.2533,0.2536,0.249,0.2519,0.2528,0.2558,0.2586,0.2591,0.2576,0.2578,0.2615,0.2618,0.2622,0.2688,0.2639,0.264,0.2641,0.2707,0.2708,0.2709,0,0,0,0,0,0,0.2432,0.2444,0.2532,0.2486,0.2496,0.2522,0.2554,0.2558,0.2574,0.259,0.2596,0.2589,0.2615,0.262,0.2657,0.2687,0.2641,0.2642,0.2705,0.2707,0.2708,0.2776,0,0,0,0,0,0,0.2429,0.2443,0.2465,0.2488,0.2499,0.2566,0.2554,0.2559,0.2575,0.2578,0.2603,0.2607,0.2616,0.2655,0.2658,0.2688,0.2643,0.2704,0.2706,0.2708,0.2772,0.278,0.2786,0,0,0,0,0,0.2424,0.2454,0.2467,0.2478,0.253,0.2568,0.2572,0.2589,0.2575,0.2601,0.2613,0.2607,0.2669,0.2657,0.2661,0.2691,0.2703,0.2706,0.2708,0.2769,0.2778,0.2786,0,0,0,0,0,0,0.2423,0.2461,0.2475,0.252,0.2553,0.2573,0.2592,0.2592,0.2618,0.2621,0.2623,0.263,0.2678,0.2668,0.2655,0.2714,0.2683,0.2686,0.2729,0.2737,0.2744,0.2735,0.2644,0,0,0,0,0,0.243,0.2459,0.2497,0.2536,0.2554,0.257,0.2584,0.2599,0.2621,0.2633,0.2644,0.2657,0.2686,0.2699,0.2723,0.2749,0.2748,0.2768,0.2775,0.2781,0.2776,0.2796,0.2805,0.2716,0.2716,0.2716,0,0,0.2433,0.2464,0.2477,0.2536,0.2559,0.2592,0.2582,0.2617,0.2641,0.2633,0.2668,0.2688,0.2701,0.2746,0.2764,0.2743,0.2812,0.2784,0.2789,0.278,0.28,0.2808,0.2816,0.2718,0.2718,0.2717,0,0,0.2451,0.2493,0.2517,0.2552,0.2597,0.2614,0.2625,0.2656,0.2672,0.2705,0.2713,0.2748,0.2772,0.28,0.2811,0.2861,0.2853,0.2866,0.2888,0.2909,0.2916,0.2923,0.296,0.2969,0.2861,0.2861,0.2861,0,0.245,0.2501,0.2532,0.2571,0.2595,0.2624,0.2655,0.2682,0.2718,0.273,0.2728,0.2779,0.2798,0.285,0.2875,0.2879,0.2889,0.2861,0.2918,0.2924,0.293,0.2966,0.2975,0.2865,0.2864,0.2864,0.2863,0,0.2491,0.253,0.2553,0.261,0.2643,0.2681,0.2722,0.275,0.2759,0.2778,0.283,0.2858,0.2884,0.2903,0.2906,0.2959,0.2956,0.2933,0.2899,0.2943,0.2978,0.2987,0.287,0.2868,0.2867,0.2866,0,0,0.2486,0.2558,0.2568,0.2587,0.2665,0.2689,0.2743,0.2789,0.2816,0.2851,0.2884,0.2938,0.2947,0.296,0.2976,0.2995,0.3061,0.298,0.2979,0.302,0.3122,0.3164,0.3176,0.3047,0.3048,0.3049,0.3142,0,0.2505,0.2557,0.2599,0.2648,0.2675,0.2723,0.277,0.2818,0.2857,0.2904,0.2934,0.2987,0.2972,0.3001,0.3017,0.306,0.3081,0.3039,0.307,0.3072,0.3105,0.3186,0.2946,0.3011,0.315,0.3151,0.3152,0,0.253,0.256,0.2599,0.2652,0.2671,0.2705,0.2772,0.282,0.2902,0.2939,0.2987,0.3022,0.3086,0.3056,0.3125,0.3099,0.3111,0.3127,0.3131,0.3146,0.3128,0.2984,0.3021,0.3166,0.3165,0.3164,0.3163,0,0.249,0.2556,0.2575,0.2599,0.2673,0.2693,0.2735,0.282,0.2879,0.2968,0.3026,0.3084,0.3141,0.3153,0.3203,0.3167,0.3274,0.3225,0.327,0.3273,0.3062,0.3046,0.3254,0.3254,0.3254,0.3253,0.3253,0,0.2489,0.2502,0.2551,0.2564,0.2597,0.266,0.2719,0.2775,0.2888,0.296,0.3037,0.3113,0.3166,0.3237,0.3238,0.3309,0.3304,0.3298,0.3306,0.3084,0.3069,0.3181,0.3172,0.3257,0.3256,0.3255,0.3255,0,0.2439,0.2476,0.2494,0.2555,0.2576,0.2595,0.271,0.2755,0.2877,0.2977,0.3017,0.3165,0.3273,0.3333,0.3395,0.3382,0.3423,0.3436,0.3196,0.3176,0.3394,0.3387,0.3496,0.3498,0.35,0.3502,0.3503,0,0.2412,0.2416,0.2467,0.2478,0.2502,0.2554,0.2595,0.2727,0.2794,0.2997,0.3038,0.321,0.3328,0.3482,0.3472,0.3521,0.3517,0.3323,0.3211,0.3425,0.3422,0.3411,0.3402,0.2955,0.2952,0.295,0.2947,0,0.2354,0.2369,0.2383,0.2415,0.2442,0.2489,0.2562,0.2632,0.2785,0.2906,0.308,0.321,0.3379,0.3363,0.3453,0.3418,0.3301,0.3278,0.3548,0.2958,0.293,0.2923,0.2927,0.2924,0.2926,0.2928,0.2929,0.293,0.2297,0.2292,0.2314,0.2342,0.2372,0.2413,0.2443,0.2537,0.2661,0.2797,0.2983,0.3083,0.318,0.3219,0.3149,0.3076,0.3287,0.3128,0.3128,0.3133,0.308,0.3061,0.307,0.3073,0.3075,0.3077,0.308,0,0.2211,0.223,0.2245,0.2272,0.2263,0.2328,0.2407,0.2403,0.2495,0.264,0.2782,0.2661,0.2738,0.2799,0.2688,0.2738,0.2606,0.2613,0.2411,0.2442,0.2468,0.237,0.2176,0.2172,0.2168,0.2165,0,0,0.2167,0.2146,0.2164,0.2146,0.2178,0.2149,0.2181,0.2189,0.2256,0.2284,0.2333,0.258,0.2756,0.2408,0.2409,0.2275,0.2304,0.2179,0.2923,0.2718,0.2737,0.2815,0.2711,0,0,0,0,0]},{"header":{"parameterUnit":"m.s-1","parameterCategory":2,"la1":30.2991,"la2":30.254,"lo1":-89.0895,"lo2":-89.0444,"dy":0.0017,"dx":0.0017,"nx":28,"ny":28,"refTime":"2024-04-10T03:00:00:Z","depth":"2","parameterNumber":3,"parameterNumberName":"V-component_of_CURRENTS"},"data":[0,0,0,0,0,0,0,0,0,0,0,0,0,0,0,0,0,0,0,0,0,0,0,0,0,0,0,0,0,0,0,0,0,0,0,0,0,0,0,0,0,0,0,0,0,0,0,0,0,0,0,0,0,0,0,0,0,0,0.0,0.0,0,-0.0067,-0.0068,-0.0069,-0.0141,-0.0142,-0.0143,-0.0143,-0.0287,-0.029,-0.0293,0,0,0,0,0,0,0,0,0,0,0,0,0,0.0013,0.0013,0.0,-0.0,-0.0001,-0.0067,-0.0068,-0.0069,-0.0141,-0.0142,-0.0143,-0.0144,-0.0286,-0.029,-0.0294,0,0,0,0,0,0,0,0,0,0,0,0,0,-0.0021,0.0013,0.0001,-0.0042,-0.0046,-0.0067,-0.0068,-0.007,-0.0141,-0.0142,-0.0143,-0.0144,-0.0285,-0.029,-0.0294,-0.0303,0,0,-0.0309,-0.0311,0,0,0,0,0,0,0,0,-0.0019,-0.0021,-0.0035,-0.0039,-0.0044,-0.0094,-0.0116,-0.015,-0.0141,-0.0109,-0.0143,-0.0145,-0.0227,-0.0236,-0.025,-0.0309,-0.0315,-0.0309,-0.0312,-0.0314,-0.0316,0,0,0,0,0,0,0,-0.0016,-0.0019,-0.003,-0.0035,-0.0041,-0.0076,-0.0082,-0.0123,-0.0165,-0.0112,-0.0116,-0.0118,-0.023,-0.0246,-0.0255,-0.0318,-0.0309,-0.0313,-0.0316,-0.0318,-0.0417,-0.0417,0,0,0,0,0,0,0.0004,-0.0016,-0.0028,-0.0031,-0.0029,-0.0075,-0.0081,-0.0079,-0.0163,-0.0175,-0.0117,-0.0121,-0.0237,-0.0249,-0.026,-0.0277,-0.0314,-0.0319,-0.0321,-0.0417,-0.0417,-0.0417,0,0,0,0,0,0,0.0004,0.0003,-0.0025,-0.0023,-0.0029,-0.0073,-0.0071,-0.008,-0.0101,-0.0165,-0.018,-0.0127,-0.0238,-0.0253,-0.0295,-0.0284,-0.0321,-0.0325,-0.0417,-0.0417,-0.0417,-0.0311,0,0,0,0,0,0,0.0005,0.0004,0.0013,-0.0021,-0.0028,-0.0029,-0.007,-0.0081,-0.0098,-0.0104,-0.0179,-0.0194,-0.024,-0.0287,-0.0299,-0.0291,-0.0329,-0.0418,-0.0417,-0.0417,-0.0315,-0.0307,-0.0301,0,0,0,0,0,0.0006,0.0026,0.0014,0.0013,-0.0014,-0.0027,-0.0034,-0.0072,-0.0097,-0.0097,-0.015,-0.0191,-0.0293,-0.029,-0.0305,-0.0298,-0.0418,-0.0417,-0.0417,-0.0318,-0.0309,-0.0301,0,0,0,0,0,0,0.0026,0.002,0.0006,0.002,0.0002,-0.0038,-0.004,-0.0067,-0.0108,-0.0116,-0.0187,-0.0204,-0.0237,-0.0282,-0.0277,-0.0326,-0.0363,-0.0366,-0.0283,-0.0275,-0.0268,-0.0234,-0.0333,0,0,0,0,0,0.0041,0.0058,0.0035,0.0045,0.0039,-0.0,-0.0011,-0.0032,-0.0071,-0.0091,-0.014,-0.0197,-0.0244,-0.0271,-0.0317,-0.0341,-0.0383,-0.0348,-0.0341,-0.0334,-0.0317,-0.0377,-0.0373,-0.0415,-0.0415,-0.0415,0,0,0.0051,0.005,0.0058,0.0052,0.0031,0.0041,-0.0011,-0.0017,-0.0013,-0.0099,-0.0115,-0.0173,-0.0246,-0.0272,-0.0291,-0.0309,-0.0343,-0.0333,-0.0327,-0.0314,-0.0376,-0.0372,-0.0368,-0.0414,-0.0415,-0.0415,0,0,0.0091,0.0079,0.0111,0.0105,0.0094,0.0072,0.0074,0.0042,0.002,0.0001,-0.0062,-0.0106,-0.0177,-0.022,-0.0255,-0.0236,-0.0303,-0.026,-0.0196,-0.0254,-0.025,-0.0248,-0.0285,-0.0287,-0.0256,-0.0256,-0.0256,0,0.011,0.0139,0.0114,0.0141,0.0145,0.0092,0.0121,0.0096,0.0055,0.0043,0.001,-0.0088,-0.0148,-0.0184,-0.0179,-0.0217,-0.0259,-0.0219,-0.0242,-0.0241,-0.024,-0.028,-0.0283,-0.0251,-0.0252,-0.0252,-0.0253,0,0.0167,0.0194,0.0208,0.0229,0.0228,0.0242,0.0213,0.0202,0.0167,0.0139,0.0096,0.0015,-0.0042,-0.0073,-0.0121,-0.0146,-0.0179,-0.0225,-0.0257,-0.0229,-0.0273,-0.0278,-0.0244,-0.0246,-0.0247,-0.0248,0,0,0.0217,0.0247,0.0257,0.0281,0.0278,0.0285,0.0291,0.0283,0.0288,0.0232,0.0227,0.0142,0.0093,0.0051,-0.0021,-0.007,-0.0101,-0.0136,-0.0142,-0.0159,-0.0218,-0.0235,-0.0243,-0.0158,-0.0158,-0.0159,-0.0246,0,0.0274,0.0349,0.0344,0.0404,0.0435,0.0399,0.041,0.0393,0.0359,0.034,0.0251,0.0215,0.014,0.0111,0.0052,-0.0068,-0.0112,-0.0072,-0.0254,-0.0259,-0.0266,-0.0249,-0.0214,-0.0288,-0.0252,-0.0253,-0.0253,0,0.0337,0.038,0.0455,0.0496,0.0504,0.0525,0.0533,0.0543,0.0499,0.0469,0.0417,0.0341,0.0266,0.0192,0.0024,0.005,-0.0064,-0.0157,-0.0164,-0.0217,-0.0285,-0.0315,-0.03,-0.0263,-0.0262,-0.0262,-0.0261,0,0.039,0.0459,0.0521,0.0536,0.0569,0.0586,0.0599,0.058,0.0604,0.0555,0.0556,0.044,0.0387,0.0232,0.0043,0.0028,-0.0147,-0.0198,-0.0314,-0.0317,-0.034,-0.0343,-0.0307,-0.0307,-0.0306,-0.0306,-0.0306,0,0.0456,0.0508,0.055,0.0586,0.0655,0.0651,0.0714,0.0702,0.0706,0.0747,0.0631,0.063,0.0392,0.0261,0.008,-0.0124,-0.0122,-0.0289,-0.034,-0.0302,-0.03,-0.0326,-0.0327,-0.0309,-0.0309,-0.0308,-0.0307,0,0.0503,0.0535,0.061,0.0662,0.0685,0.0734,0.0808,0.085,0.0839,0.0887,0.0879,0.0767,0.06,0.0362,0.0104,-0.0064,-0.0268,-0.0343,-0.027,-0.0309,-0.0407,-0.0401,-0.0474,-0.0476,-0.0477,-0.0478,-0.0478,0,0.0533,0.0577,0.067,0.0723,0.0749,0.0827,0.0883,0.0912,0.0975,0.0982,0.1015,0.0873,0.081,0.0434,0.0093,-0.0221,-0.0268,-0.0397,-0.0419,-0.0382,-0.0424,-0.0417,-0.041,-0.0408,-0.0408,-0.0408,-0.0408,0,0.0583,0.0613,0.0677,0.0794,0.0868,0.0974,0.1063,0.1142,0.1182,0.1227,0.1268,0.1223,0.086,0.0549,0.0098,-0.0119,-0.0346,-0.0408,-0.0402,-0.0366,-0.0326,-0.0364,-0.0359,-0.0409,-0.0409,-0.0409,-0.0409,-0.0409,0.0611,0.0668,0.0759,0.0869,0.097,0.1116,0.1234,0.1334,0.1466,0.1559,0.1479,0.1426,0.1035,0.0485,0.008,-0.0355,-0.0337,-0.0475,-0.0473,-0.0471,-0.0442,-0.0405,-0.0498,-0.0498,-0.0499,-0.0499,-0.0499,0,0.0652,0.0725,0.083,0.0982,0.1117,0.1162,0.1354,0.1481,0.1664,0.1715,0.1756,0.1416,0.1034,0.0581,-0.0057,-0.0429,-0.0463,-0.0546,-0.0501,-0.0497,-0.0494,-0.0466,-0.0529,-0.053,-0.0532,-0.0533,0,0,0.0676,0.0787,0.0855,0.1085,0.1201,0.1416,0.1551,0.1727,0.1832,0.1926,0.1891,0.1763,0.12,0.0744,0.0215,-0.0153,-0.0233,-0.0227,-0.0161,-0.004,-0.0033,-0.0414,-0.036,0,0,0,0,0]}],[{"header":{"parameterUnit":"m.s-1","parameterCategory":2,"la1":30.2991,"la2":30.254,"lo1":-89.0895,"lo2":-89.0444,"dy":0.0017,"dx":0.0017,"nx":28,"ny":28,"refTime":"2024-04-10T03:00:00:Z","depth":"4","parameterNumber":2,"parameterNumberName":"U-component_of_CURRENTS"},"data":[0,0,0,0,0,0,0,0,0,0,0,0,0,0,0,0,0,0,0,0,0,0,0,0,0,0,0,0,0,0,0,0,0,0,0,0,0,0,0,0,0,0,0,0,0,0,0,0,0,0,0,0,0,0,0,0,0,0,0.1184,0.1186,0,0.134,0.1341,0.1343,0.1412,0.1412,0.1412,0.1412,0.1478,0.148,0.1482,0,0,0,0,0,0,0,0,0,0,0,0,0,0.1027,0.1029,0.1184,0.1186,0.1188,0.1339,0.1341,0.1344,0.1412,0.1412,0.1412,0.1412,0.1478,0.148,0.1482,0,0,0,0,0,0,0,0,0,0,0,0,0,0.113,0.1029,0.1184,0.124,0.1247,0.1339,0.1342,0.1344,0.1413,0.1412,0.1412,0.1411,0.1477,0.148,0.1483,0.1508,0,0,0.1492,0.1493,0,0,0,0,0,0,0,0,0.1124,0.1136,0.123,0.1236,0.1244,0.1356,0.1311,0.1395,0.1413,0.135,0.1412,0.1411,0.1429,0.1436,0.1468,0.1511,0.1514,0.1492,0.1494,0.1495,0.1496,0,0,0,0,0,0,0,0.1116,0.113,0.1246,0.1232,0.1241,0.1285,0.1299,0.1328,0.1388,0.1355,0.1361,0.1378,0.1432,0.1465,0.147,0.1515,0.1492,0.1495,0.1497,0.1498,0.1667,0.1669,0,0,0,0,0,0,0.1093,0.1123,0.1241,0.1251,0.1181,0.1288,0.1303,0.1321,0.139,0.1401,0.1378,0.138,0.146,0.1466,0.1472,0.1582,0.1495,0.1498,0.15,0.1664,0.1667,0.167,0,0,0,0,0,0,0.1089,0.1102,0.1235,0.119,0.121,0.129,0.131,0.1324,0.1388,0.1408,0.1417,0.143,0.146,0.1468,0.1513,0.1581,0.1499,0.1502,0.1661,0.1665,0.1669,0.1752,0,0,0,0,0,0,0.1084,0.11,0.1129,0.1188,0.1211,0.1301,0.1311,0.1327,0.1397,0.1402,0.1456,0.146,0.146,0.1508,0.1516,0.1584,0.1504,0.1657,0.1663,0.1667,0.1746,0.1758,0.1769,0,0,0,0,0,0.1078,0.112,0.1129,0.1145,0.124,0.1303,0.132,0.1375,0.14,0.1432,0.1462,0.146,0.1547,0.1512,0.152,0.1591,0.1655,0.1661,0.1667,0.1741,0.1756,0.1769,0,0,0,0,0,0,0.109,0.1132,0.1144,0.1203,0.125,0.1314,0.1364,0.1398,0.1454,0.1462,0.1481,0.1488,0.1559,0.1561,0.1522,0.1657,0.1607,0.1615,0.166,0.1675,0.1686,0.1691,0.1507,0,0,0,0,0,0.1098,0.113,0.1175,0.1229,0.125,0.1312,0.1355,0.1385,0.1432,0.1461,0.15,0.1543,0.159,0.1616,0.1649,0.1714,0.1712,0.177,0.1782,0.1792,0.1803,0.1843,0.1859,0.169,0.169,0.169,0,0,0.1113,0.1149,0.1167,0.1232,0.1276,0.1327,0.1339,0.1404,0.1461,0.1455,0.1554,0.1582,0.1614,0.1689,0.1723,0.1699,0.1842,0.1799,0.1807,0.1813,0.1851,0.1867,0.1881,0.1694,0.1693,0.1693,0,0,0.1152,0.1194,0.1222,0.1266,0.1328,0.1365,0.1387,0.1459,0.1506,0.1583,0.1604,0.1668,0.1741,0.1783,0.1811,0.1908,0.1899,0.1933,0.2001,0.204,0.2054,0.2066,0.2092,0.2105,0.1942,0.1942,0.1942,0,0.1164,0.1223,0.1246,0.1293,0.1345,0.1383,0.1437,0.1493,0.1576,0.1624,0.162,0.1767,0.1791,0.1895,0.1934,0.1937,0.1947,0.1942,0.2054,0.2066,0.2077,0.21,0.2114,0.1947,0.1946,0.1946,0.1945,0,0.1216,0.1277,0.1308,0.1371,0.1424,0.1484,0.1541,0.1609,0.1669,0.1723,0.1838,0.1876,0.1964,0.1995,0.1997,0.2108,0.2087,0.2058,0.2013,0.2098,0.2118,0.2131,0.1954,0.1952,0.1951,0.1949,0,0,0.1204,0.1314,0.133,0.138,0.1475,0.152,0.1617,0.1715,0.1792,0.1872,0.1978,0.2075,0.2102,0.2136,0.2159,0.22,0.229,0.2172,0.2172,0.2188,0.2374,0.2245,0.2246,0.2279,0.2281,0.2283,0.2359,0,0.1241,0.1338,0.1389,0.1499,0.1557,0.1629,0.1717,0.1807,0.1889,0.1994,0.206,0.216,0.2154,0.2208,0.2253,0.2282,0.2328,0.2272,0.2298,0.2299,0.2164,0.2258,0.2292,0.2368,0.2371,0.2373,0.2374,0,0.1284,0.1346,0.1449,0.1575,0.1605,0.1678,0.1826,0.1907,0.2043,0.2107,0.2211,0.2256,0.2366,0.2327,0.2428,0.2393,0.2402,0.2406,0.2409,0.2266,0.2193,0.2265,0.2397,0.2395,0.2394,0.2392,0.2391,0,0.1279,0.1401,0.1489,0.1534,0.1665,0.1739,0.1819,0.1954,0.2035,0.2187,0.2258,0.2371,0.2445,0.2479,0.2513,0.2481,0.2589,0.2537,0.2429,0.242,0.2473,0.2459,0.2602,0.2602,0.2602,0.2602,0.2601,0,0.1313,0.1389,0.1499,0.155,0.1651,0.175,0.1874,0.1969,0.2113,0.22,0.2316,0.239,0.2487,0.2556,0.2555,0.254,0.263,0.2462,0.2439,0.2508,0.2497,0.2482,0.2467,0.2604,0.2604,0.2603,0.2603,0,0.1297,0.1382,0.1476,0.1608,0.1655,0.1727,0.1887,0.1961,0.2116,0.2234,0.2289,0.2444,0.2529,0.2601,0.2666,0.2589,0.2587,0.2557,0.2648,0.2625,0.2378,0.2367,0.2435,0.2431,0.2428,0.2426,0.2423,0,0.1296,0.1346,0.148,0.1523,0.1588,0.1706,0.1775,0.1944,0.2017,0.2234,0.2268,0.2431,0.2508,0.2506,0.2583,0.2594,0.2558,0.2535,0.2438,0.2394,0.2366,0.2359,0.2353,0.2418,0.2417,0.2417,0.2416,0,0.1261,0.1316,0.1374,0.1463,0.1542,0.1622,0.174,0.1788,0.197,0.2124,0.2207,0.2269,0.2368,0.2419,0.2466,0.2456,0.2535,0.2501,0.2506,0.2415,0.2374,0.2348,0.2345,0.2405,0.2406,0.2407,0.2408,0,0.1211,0.1228,0.1305,0.1375,0.1461,0.151,0.1592,0.168,0.1781,0.2014,0.2031,0.2196,0.234,0.2349,0.2379,0.2383,0.2332,0.223,0.2248,0.2261,0.2169,0.209,0.2033,0,0,0,0,0,0.1146,0.1156,0.1209,0.1276,0.1355,0.1415,0.1547,0.1631,0.1804,0.1813,0.1926,0.2006,0.2083,0.2167,0.2136,0.2297,0.2336,0.2249,0.2226,0.2343,0.2356,0.2264,0,0,0,0,0,0,0.11,0.1141,0.1167,0.1177,0.1205,0.1285,0.1365,0.1485,0.1508,0.1688,0.1744,0.1878,0.1985,0.2082,0.2095,0.212,0.2063,0.2355,0.2349,0.2336,0.2348,0.2358,0.2268,0,0,0,0,0]},{"header":{"parameterUnit":"m.s-1","parameterCategory":2,"la1":30.2991,"la2":30.254,"lo1":-89.0895,"lo2":-89.0444,"dy":0.0017,"dx":0.0017,"nx":28,"ny":28,"refTime":"2024-04-10T03:00:00:Z","depth":"4","parameterNumber":3,"parameterNumberName":"V-component_of_CURRENTS"},"data":[0,0,0,0,0,0,0,0,0,0,0,0,0,0,0,0,0,0,0,0,0,0,0,0,0,0,0,0,0,0,0,0,0,0,0,0,0,0,0,0,0,0,0,0,0,0,0,0,0,0,0,0,0,0,0,0,0,0,0.0375,0.0374,0,0.0303,0.0302,0.0301,0.0268,0.0268,0.0268,0.0268,0.0186,0.0184,0.0182,0,0,0,0,0,0,0,0,0,0,0,0,0,0.0381,0.0381,0.0375,0.0374,0.0373,0.0303,0.0302,0.0301,0.0268,0.0268,0.0268,0.0269,0.0187,0.0184,0.0182,0,0,0,0,0,0,0,0,0,0,0,0,0,0.0349,0.0381,0.0375,0.0349,0.0346,0.0303,0.0302,0.0301,0.0268,0.0268,0.0268,0.0269,0.0188,0.0185,0.0181,0.0154,0,0,0.0171,0.0169,0,0,0,0,0,0,0,0,0.0351,0.0349,0.0354,0.0351,0.0348,0.0296,0.0274,0.0252,0.0268,0.0296,0.0268,0.0269,0.0223,0.0216,0.0201,0.0151,0.0147,0.017,0.0168,0.0167,0.0166,0,0,0,0,0,0,0,0.0354,0.0351,0.0345,0.0353,0.0349,0.0306,0.0303,0.0269,0.0258,0.0294,0.0292,0.0286,0.0221,0.0204,0.0198,0.0146,0.017,0.0167,0.0165,0.0164,0.006,0.0059,0,0,0,0,0,0,0.037,0.0354,0.0347,0.0343,0.0352,0.0306,0.0303,0.0311,0.0258,0.0251,0.0285,0.0284,0.021,0.0203,0.0195,0.0168,0.0167,0.0163,0.0161,0.006,0.006,0.0059,0,0,0,0,0,0,0.0371,0.0371,0.035,0.0347,0.0341,0.0307,0.0316,0.031,0.0293,0.0252,0.0244,0.0276,0.021,0.02,0.0179,0.0164,0.0162,0.0158,0.0061,0.006,0.0059,0.0108,0,0,0,0,0,0,0.0372,0.0372,0.0373,0.0349,0.0342,0.0331,0.0316,0.0308,0.0289,0.0287,0.0241,0.0234,0.0209,0.0184,0.0175,0.0159,0.0156,0.0062,0.0061,0.006,0.0107,0.0109,0.011,0,0,0,0,0,0.0372,0.0381,0.0374,0.0372,0.0349,0.0331,0.0324,0.0298,0.0289,0.0283,0.0261,0.0235,0.0169,0.0182,0.0171,0.0154,0.0063,0.0061,0.006,0.0107,0.0109,0.011,0,0,0,0,0,0,0.0389,0.0378,0.037,0.0376,0.0357,0.0326,0.0319,0.0299,0.0274,0.0275,0.0236,0.0228,0.02,0.017,0.0184,0.0118,0.0107,0.0103,0.0146,0.0147,0.0149,0.0168,0.0153,0,0,0,0,0,0.0393,0.0398,0.0377,0.0383,0.0377,0.0346,0.0332,0.0317,0.0296,0.0284,0.0253,0.0217,0.0183,0.0163,0.0131,0.01,0.0067,0.0077,0.0078,0.008,0.0087,0.0024,0.0021,0.0054,0.0054,0.0054,0,0,0.0398,0.0397,0.0396,0.0386,0.0371,0.0365,0.0339,0.0328,0.0318,0.0279,0.0259,0.0225,0.0177,0.0146,0.0128,0.0121,0.0054,0.0078,0.008,0.0086,0.0023,0.0019,0.0017,0.0053,0.0053,0.0054,0,0,0.0418,0.0416,0.0422,0.0412,0.0396,0.0379,0.0378,0.0349,0.0332,0.031,0.0276,0.0241,0.019,0.0152,0.0126,0.0113,0.0067,0.0092,0.0112,0.0051,0.0048,0.0045,0.0008,0.0001,0.0089,0.0089,0.0089,0,0.0426,0.0435,0.0419,0.0425,0.042,0.039,0.0394,0.0371,0.0336,0.0323,0.0314,0.0232,0.0192,0.0145,0.0142,0.0117,0.0083,0.0114,0.0055,0.0051,0.0047,0.0009,0.0001,0.0091,0.0091,0.0091,0.0091,0,0.044,0.0451,0.0459,0.0459,0.0449,0.0451,0.0424,0.0409,0.0387,0.0361,0.0317,0.0263,0.0216,0.0185,0.0162,0.0108,0.0094,0.0069,0.0056,0.0047,0.0007,-0.0002,0.0094,0.0094,0.0093,0.0092,0,0,0.0456,0.0467,0.047,0.0483,0.047,0.047,0.0457,0.0436,0.0433,0.0383,0.0365,0.0293,0.0263,0.0231,0.0181,0.0124,0.0069,0.009,0.0086,0.0065,-0.0052,-0.0046,-0.0056,0.0031,0.003,0.0029,-0.0065,0,0.0474,0.0502,0.0495,0.0519,0.053,0.0509,0.0504,0.048,0.0455,0.0432,0.0359,0.0329,0.0278,0.0259,0.0192,0.0104,0.0045,0.0098,-0.005,-0.0054,-0.0039,-0.0066,0.0024,-0.0072,-0.0075,-0.0076,-0.0077,0,0.0482,0.0506,0.0535,0.0561,0.0563,0.057,0.0567,0.0563,0.052,0.0498,0.0448,0.0397,0.0315,0.0274,0.0114,0.0149,0.0056,-0.0018,-0.0025,-0.0041,-0.0066,-0.0067,-0.0094,-0.0093,-0.0092,-0.0091,-0.009,0,0.05,0.0532,0.0563,0.057,0.0588,0.0597,0.0607,0.0583,0.0596,0.0548,0.0547,0.0437,0.0394,0.0256,0.0106,0.0107,-0.007,-0.0092,-0.0176,-0.0176,-0.0172,-0.0169,-0.0211,-0.0211,-0.0211,-0.0211,-0.021,0,0.0518,0.0545,0.058,0.06,0.0644,0.0639,0.0679,0.0667,0.0664,0.0685,0.0593,0.0575,0.0386,0.0267,0.012,-0.0051,-0.0065,-0.0174,-0.0206,-0.0149,-0.0142,-0.0178,-0.0173,-0.0214,-0.0213,-0.0213,-0.0212,0,0.0527,0.0549,0.0597,0.0637,0.0658,0.0691,0.0752,0.0777,0.0766,0.0789,0.0781,0.0673,0.0521,0.0329,0.0104,-0.0017,-0.0191,-0.0251,-0.016,-0.0186,-0.0256,-0.0248,-0.0347,-0.0348,-0.0348,-0.0349,-0.0349,0,0.0531,0.0557,0.0635,0.0677,0.0701,0.0761,0.0804,0.0826,0.0863,0.0851,0.0863,0.0735,0.0638,0.0339,0.0123,-0.016,-0.0205,-0.0296,-0.0293,-0.0252,-0.0273,-0.0264,-0.0255,-0.035,-0.035,-0.0351,-0.0351,0,0.0543,0.0577,0.0623,0.0715,0.0777,0.0857,0.0924,0.0961,0.0986,0.0974,0.0933,0.0778,0.0606,0.036,0.0135,-0.007,-0.0238,-0.0303,-0.0303,-0.0301,-0.0257,-0.0276,-0.0266,-0.0353,-0.0352,-0.0352,-0.0352,0,0.0556,0.0595,0.0669,0.0747,0.0838,0.0931,0.0964,0.1007,0.1045,0.1028,0.101,0.0822,0.0706,0.0406,0.02,-0.0003,-0.0055,-0.0127,-0.0137,-0.0137,-0.0056,0.0033,-0.0004,0,0,0,0,0,0.0561,0.0616,0.0694,0.0797,0.089,0.0955,0.1037,0.106,0.1084,0.1069,0.1047,0.0889,0.0591,0.046,0.0261,0.0175,-0.0102,-0.0068,-0.0191,-0.0364,-0.0362,-0.0302,0,0,0,0,0,0,0.057,0.0645,0.0695,0.0828,0.0907,0.1023,0.1084,0.1099,0.1093,0.1078,0.0927,0.084,0.0552,0.0714,0.0261,0.0197,0.009,-0.021,-0.0215,-0.0366,-0.0363,-0.0361,-0.03,0,0,0,0,0]}]]